Regional Weather Roundup
Issued by NWS Goodland, KS

Home | Current Version | Previous Version | Text Only | Print | Product List | Glossary On
Versions: 1 2 3 4 5 6 7 8 9 10 11 12 13 14 15 16 17 18 19 20 21 22 23 24 25 26 27 28 29 30 31 32 33 34 35 36 37 38 39 40 41 42 43 44 45 46 47 48 49 50
000
ASUS43 KGLD 121208
RWRGLD

GOODLAND FORECAST AREA HOURLY WEATHER ROUNDUP
NATIONAL WEATHER SERVICE GOODLAND KS
500 AM MST FRI FEB 12 2016

...OFFICIAL OBSERVATIONS...

CITY           SKY/WX    TMP DP  RH WIND       PRES   REMARKS
GOODLAND KS    CLOUDY    29  24  82 W8        30.29S
HILL CITY KS   CLEAR     28  26  92 CALM      30.33
IMPERIAL NEB   CLEAR     29  24  82 W3        30.29R
MCCOOK NEB     CLEAR     26  24  92 NW6       30.31R
AKRON CO       CLOUDY    35  26  69 SW10      30.28R
BURLINGTON CO  CLOUDY    32  26  78 W8        30.30R
LIMON CO       CLOUDY    19  17  92 CALM      30.30S
$$

...UNOFFICIAL OBSERVATIONS...

CITY           SKY/WX    TMP DP  RH WIND       PRES   REMARKS
COLBY KS       CLEAR     28  28 100 W7        30.31R
GOVE KS          N/A     29  32 100 MISG        N/A
LENORA KS        N/A     30  32 100 MISG        N/A
NORTON KS      CLEAR     25  21  86 N6        30.30R
SHARON SPRINGS   N/A     30  26  86 CALM        N/A
KIT CARSON CO    N/A     27  23  85 MISG        N/A
$$



USA.gov is the U.S. government's official web portal to all federal, state and local government web resources and services.